THORAD AGENA D DEB, 4748

Orbit data source: Space-Track

THORAD AGENA D DEB, 4748 is space debris in SSO originally from a launch on Wed, 08 Apr 1970 UTC launched from the Air Force Western Test Range (AFWTR). Debris objects in space refer to the collection of defunct objects orbiting the Earth. Examples of debris include non-operational satellites, rocket bodies, and fragments generated from explosions, collisions, or faulty payload assembly.

Loading next visibility...
Identifier
4748, 1970-025CW
Orbit
SSO
Country
Flag of USUS
Related business
Manufacturer
Unknown
Mission
Spacecraft
Bus & Motor
Unknown
Mass
Unknown
Launch date (UTC)
1970-04-08 (56 years ago)
Launch vehicle
Unknown
Launch site
Air Force Western Test Range (AFWTR)
Object type
Payload
Rocket body
Debris
Shape & HBR
Unknown shape, 0.2 m
Radar Cross Section
Small (<0.1 m²)

Expand to show TLE details & history
Last TLE update: 15 hours ago

TLE from 15 hours ago
0 THORAD AGENA D DEB
1 04748U 70025CW  25292.22966843  .00000616  00000-0  83073-3 0  9994
2 04748 100.1079  95.2772 0005664   8.9746 351.1495 13.64301362750098
Epoch: 2025-10-19T05:30Z
TLE epoch observation values (Epoch: 2025-10-19T05:30:43.352Z)
Latitude
-0.00003°
Longitude
-15.35275°
Altitude
1,018.751 km
Speed
7.344 km/s
True Right ascension
06h 21m 06s
True Declination
0° 00' 00"
Sunlit
Object was in daylight at epoch
Visualization orbit readout
Latitude
Unknown
Longitude
Unknown
Altitude
Unknown
Speed
Unknown
Apparent Right ascension
Unknown
Apparent Declination
Unknown
Sunlit
N/A
Visualization observer readout
Local Sidereal Time
15:38:22
Azimuth
Unknown
Elevation
Unknown
Doppler factor
Unknown
Orbital elements
Apogee altitude
1,021.594 km
Perigee altitude
1,013.216 km
Semi-major axis
7,395.542 km
Eccentricity
0.00057
Inclination
100.1079°
RAAN
95.2772°
Arg. of periapsis
8.9746°
True anomaly
351.13951°
Mean anomaly
351.1495°
Eccentric anomaly
351.1445°
Mean motion
3.41262 °/min
Orbital period
105.49 mins
BSTAR
0.00083073
Loading maneuver chart data...
Computing Atmospheric mass density...

Documentation

Showing up to 5 results
|